Weather Roundup
Issued by NWS

Home | Current Version | Previous Version | Text Only | Print | Product List | Glossary On
Versions: 1 2 3 4 5 6 7 8 9 10 11 12 13 14 15 16 17 18 19 20 21 22 23 24 25 26 27 28 29 30 31 32 33 34 35 36 37 38 39 40 41 42 43 44 45 46 47 48 49 50
000
NZUS93 KARX 300610
HRRWXR

CURRENT HOURLY OBSERVATIONS ACROSS
MUCH OF THE UPPER MISSISSIPPI VALLEY
NATIONAL WEATHER SERVICE LA CROSSE WI
100 AM CDT TUE SEP 30 2014


...SOUTHEAST MINNESOTA...


CITY           SKY/WX    TMP DP  RH WIND       PRES   REMARKS
ROCHESTER      CLEAR     44  41  89 NE7       30.08S
ROCHESTER/MAYO FAIR      46  41  84 NE5       30.08S
WINONA         CLEAR     46  41  81 E3        30.11R
AUSTIN         CLEAR     46  45  93 E5        30.06S
ALBERT LEA     CLEAR     48  46  93 E6        30.06S
DODGE CENTER   PTCLDY    45  43  93 E6        30.07F
PRESTON        CLEAR     45  42  92 NE3       30.08R
OWATONNA       CLEAR     45  43  93 NE8       30.07F
FARIBAULT      CLEAR     46  41  81 NE5       30.08F
$$

...ELSEWHERE IN MINNESOTA...


CITY           SKY/WX    TMP DP  RH WIND       PRES   REMARKS
MINNEAPOLIS    PTCLDY    44  40  85 NE10      30.11R
INTNL FALLS    CLOUDY    42  39  89 SE7       30.15F
DULUTH         CLOUDY    44  39  82 E13       30.15F
RED WING       CLEAR     43  39  87 E5        30.10S
REDWOOD FALLS  CLEAR     47  45  93 E9        30.07S
MANKATO        CLEAR     46  39  76 E9        30.07S
WORTHINGTON    MOCLDY    50  46  87 E8        30.05S
FAIRMONT       CLEAR     48  43  81 CALM      30.06R
$$

...SOUTHWEST WISCONSIN...


CITY           SKY/WX    TMP DP  RH WIND       PRES   REMARKS
LA CROSSE      CLEAR     47  42  83 NE6       30.09R
PRAIRIE DU CHI CLOUDY    53  47  77 NE6       30.05S
BOSCOBEL       CLOUDY    54  47  77 NE6       30.06S
LONE ROCK      CLOUDY    55  46  71 NE9       30.07R
PLATTEVILLE    CLOUDY    52  49  90 NE6       30.05S
FORT MC COY    MOCLDY    43  41  95 N5        30.10S
CAMP DOUGLAS   CLOUDY    46  46 100 NE10      30.09S
VIROQUA        FAIR      45  45 100 NE3       30.07S
WIS DELLS      CLOUDY    47  44  89 NE9G16    30.08R FOG
$$

...ELSEWHERE IN WISCONSIN...


CITY           SKY/WX    TMP DP  RH WIND       PRES   REMARKS
MILWAUKEE      CLOUDY    49  42  77 N14G21    30.06R
MADISON        CLOUDY    49  44  83 NE15      30.07R
GREEN BAY      CLOUDY    43  38  82 N17G23    30.11S
EAU CLAIRE     CLOUDY    42  36  79 NE14      30.12S
BLACK RVR FLS  MOCLDY    41  40  98 NE5       30.11R
MEDFORD        CLOUDY    38  36  91 NE8       30.12S WCI  32
WAUSAU         CLOUDY    41  36  82 NE7       30.12R
WIS RAPIDS     CLOUDY    45  39  79 E10       30.11F
MARSHFIELD     CLOUDY    42  37  82 NE12      30.10S
RICE LAKE      CLOUDY    41  37  84 NE9       30.16R
$$

...NORTHEAST IOWA...


CITY           SKY/WX    TMP DP  RH WIND       PRES   REMARKS
DECORAH        CLEAR     48  46  93 NE7       30.05S
MASON CITY     CLEAR     49  48  97 NE6       30.06S
CHARLES CITY   CLEAR     50  48  93 NE6       30.05S
OELWEIN        CLOUDY    54  50  87 E10G17    30.04S
$$

...ELSEWHERE IN IOWA...


CITY           SKY/WX    TMP DP  RH WIND       PRES   REMARKS
DES MOINES     CLEAR     63  58  83 NE6       30.00R
IOWA CITY      PTCLDY    59  56  89 NE10      30.01R
FORT DODGE     CLOUDY    54  48  82 E7        30.04R
$$

...NORTHERN ILLINOIS...


CITY           SKY/WX    TMP DP  RH WIND       PRES   REMARKS
CHICAGO-OHARE  CLOUDY    54  49  83 NE13      30.02R
CHICAGO-MIDWAY CLOUDY    57  52  83 N17       30.01R
MOLINE         NOT AVBL
ROCKFORD       CLOUDY    53  47  79 E9        30.05R
PEORIA         CLEAR     65  59  81 NE13      29.95R
$$

NOTE: "FAIR" INDICATES FEW OR NO CLOUDS BELOW 12,000 FEET WITH NO
SIGNIFICANT WEATHER AND/OR OBSTRUCTIONS TO VISIBILITY. WIND
SPEEDS ARE IN MILES-PER-HOUR.



USA.gov is the U.S. government's official web portal to all federal, state and local government web resources and services.